Weather in Bolshoy Khomutets

Russia / Lipetsk Oblast     52°47′27″N   39°51′24″E
temp.,
°C
wind,
m/s
gust,
m/s
humid.,
%
clouds,
%
prec.,
mm/h
press.,
hPa
HPBL,
m
2 august, mon
mon200:00+23ssw23495 0.0 101231
03:00+22ssw33524 0.0 101241
06:00+22s36536 0.0 1012150
09:00+29s58400 0.0 1011645
12:00+34ssw79285 0.0 10093122
15:00+36ssw692247 0.0 10074062
18:00+34sw78240 0.0 10073057
21:00+27ssw411400 0.0 1007265
3 august, tue
tue300:00+23wnw71262100 0.0 1008449
03:00+21ssw356682 0.0 1009143
06:00+20ssw2382100 0.3 1009140
09:00+24w3563100 0.4 1010821
12:00+28sw364782 0.0 10101804
15:00+29sw4736100 0.0 10092190
18:00+25nnw574495 0.0 1010830
21:00+21nnw3756100 0.0 1012255
4 august, wed
wed400:00+18nnw38640 0.0 1013161
03:00+17nnw23712 0.0 101450
06:00+17nw24701 0.0 1015124
09:00+24nw34430 0.0 10161065
12:00+27wnw45270 0.0 10162828
15:00+28wnw55234 0.0 10153083
18:00+27nw442429 0.0 10152656
21:00+19nne37485 0.0 1016138
5 august, thu
thu500:00+17nne22535 0.0 101836
03:00+16nne22595 0.0 101822
06:00+17ene115812 0.0 101926
09:00+24e223544 0.0 1018666
12:00+29ssw1225100 0.0 10172676
15:00+30se122399 0.0 10162911
18:00+26nne2430100 0.0 1015319
21:00+22nne494197 0.0 1016271
6 august, fri
fri600:00+20sse334624 0.0 101552
03:00+19sse3447100 0.0 101593
06:00+20s254777 0.0 1016122
09:00+27s343277 0.0 1015738
12:00+28sw022885 0.0 10141404
15:00+32ene232374 0.0 10132995
18:00+31ese332592 0.0 10121808
21:00+24ese24392 0.0 101367